National Weather Service United States Department of Commerce

Latest Hourly Weather Roundup

TOPSWRTT 000
TTAA00 KICT 230912

Wichita AWIPS Roundup
National Weather Service Wichita KS
400 AM CDT WED MAY 23 2018

....Central Kansas....
  
CITY           SKY/WX    TMP DP  RH WIND       PRES   REMARKS
RUSSELL        CLOUDY    71  65  81 S16       29.97R                  
SALINA         PTCLDY    70  66  87 SE9       29.99R                  
GREAT BEND     PTCLDY    66  63  90 SE9       30.00R                  
ELLSWORTH      CLEAR     68  63  83 SE6       29.99R                  
MCPHERSON      CLEAR     68  64  88 SE6       30.01R                  
HAYS           CLOUDY    64  61  90 S9        29.98S                  

....South Central Kansas....
  
CITY           SKY/WX    TMP DP  RH WIND       PRES   REMARKS
HUTCHINSON     CLEAR     67  65  93 SE6       29.99S                  
NEWTON         CLEAR     66  65  96 SE9       30.02R                  
KINGMAN        CLEAR     68  64  88 SE5       30.00S                  
WICHITA (ICT)  PTCLDY    69  67  93 SE7       30.00R                  
JABARA ARPT    CLEAR     67  67 100 SE6       30.00S                  
BEECH ARPT     FAIR      67  65  93 SE6       30.01R                  
MCCONNELL AFB  CLEAR     69  66  90 S6        30.00S                  
BENTON         FAIR      67  65  95 S6        30.01S                  
EL DORADO      FAIR      68  66  94 SE5       30.01S                  
AUGUSTA        FAIR      66  66 100 CALM      30.01S                  
HARPER           N/A     66  63  88 CALM      30.02S                  
WELLINGTON     CLEAR     68  66  94 SE3       30.00R                  
WINFIELD       CLEAR     69  68  96 SE3       30.01S                  
 
....Southeast Kansas....
  
CITY           SKY/WX    TMP DP  RH WIND       PRES   REMARKS
EUREKA         CLEAR     66  64  94 E5        30.03S                  
IOLA           FAIR      65  65 100 CALM      30.04S                  
CHANUTE        CLEAR     68  68 100 SE6       30.03S                  
PARSONS        CLEAR     67  66  97 CALM      30.03S                  
COFFEYVILLE    CLEAR     67  66  97 E5        30.02R                  
INDEPENDENCE   CLEAR     67  65  94 E3        30.02S                  
FORT SCOTT     CLEAR     66  64  94 CALM      30.03R                  
PITTSBURG      CLEAR     69  69 100 CALM      30.03S                  

....Western Kansas....
  
CITY           SKY/WX    TMP DP  RH WIND       PRES   REMARKS
GOODLAND       CLOUDY    63  56  78 S9        29.93S                  
HILL CITY      CLOUDY    68  60  75 S10G20    29.96S                  
LIBERAL        CLOUDY    69  62  78 W8        30.03R                  
GARDEN CITY    CLOUDY    65  61  87 SW7       30.02R                  
DODGE CITY     CLOUDY    68  60  75 S10       30.00S                  
PRATT          CLEAR     68  62  79 S10       30.01S                  
MEDICINE LODGE   N/A     67  64  90 E5        29.99S                  

....Northeast Kansas....
  
CITY           SKY/WX    TMP DP  RH WIND       PRES   REMARKS
CONCORDIA      CLOUDY    70  65  84 S13       29.98S                  
TOPEKA         CLEAR     68  67  96 CALM      30.01S                  
MANHATTAN      CLOUDY    71  66  84 S9        30.00R                  
LAWRENCE       CLEAR     65  64  97 E6        30.02S                  
OLATHE         CLEAR     67  64  90 CALM      30.03S                  
EMPORIA        CLEAR     66  64  93 S6        30.01S                  

....Oklahoma....
  
CITY           SKY/WX    TMP DP  RH WIND       PRES   REMARKS
GAGE           CLEAR     67  62  84 S12       30.00S                  
PONCA CITY     CLEAR     70  66  87 SE6       29.99R                  
BARTLESVILLE   CLEAR     65  64  97 CALM      30.01S                  
TULSA          PTCLDY    70  67  90 SE3       29.99R                  
OKLAHOMA CITY  PTCLDY    68  66  93 S7        30.00R                  

Note: "fair" indicates few or no clouds below 12,000 feet with no
significant weather and/or obstructions to visibility.